Location: Artiguedieu
(43.5000°N, 0.5454°E)
Time: 13:53:21
(UTC+00:00)

HuskySat-1 - Pass Details

Date: 03 October 2021
Orbit: 445 x 458 km, 51.6° (Epoch: 27 October)

Event Time Altitude Azimuth Distance (km) Brightness Sun altitude
Rises 19:05:54 0° 271° (W) 2,458 ? -17.2°
Reaches altitude 10° 19:08:14 10° 283° (WNW) 1,590 ? -17.7°
Maximum altitude 19:11:23 28° 345° (NNW) 887 ? -18.2°
Enters shadow 19:13:05 19° 29° (NNE) 1,140 ? -18.5°
